Total_Precipitation_Accumulation
1.29 1.34 1.45 1.55 1.54 1.50 1.50 1.47 1.57 1.61 1.65 1.66 1.71 1.78 1.79 1.92 2.19 2.50 2.40 2.39 2.44 2.44 2.45 2.61 2.70 2.86 2.91 2.80 2.80 2.83 3.00 3.20 2.96 2.57 2.44 2.36 2.17 1.98 1.91 1.77 1.65 1.62 1.59
1.11 1.19 1.27 1.39 1.42 1.42 1.45 1.58 1.66 1.65 1.59 1.50 1.56 1.64 1.58 1.71 1.98 2.29 2.45 2.58 2.71 2.65 2.67 2.85 2.87 2.89 2.85 2.76 2.79 2.78 2.81 3.07 2.98 2.68 2.60 2.55 2.35 2.09 1.99 1.91 1.63 1.51 1.56
1.00 1.05 1.13 1.28 1.45 1.54 1.59 1.62 1.71 1.74 1.69 1.67 1.70 1.68 1.79 1.91 1.95 2.11 2.29 2.38 2.50 2.57 2.70 2.75 2.72 2.85 2.76 2.74 2.62 2.59 2.63 2.80 3.05 2.85 2.73 2.75 2.63 2.36 2.22 2.03 1.83 1.82 1.52
0.96 1.10 1.18 1.38 1.59 1.67 1.69 1.72 1.73 1.75 1.75 1.79 1.79 1.83 1.95 2.03 1.99 2.06 2.21 2.30 2.36 2.42 2.55 2.65 2.72 2.73 2.76 2.90 2.75 2.72 2.87 2.99 3.09 3.02 2.88 2.95 2.96 2.76 2.55 2.28 2.09 1.94 1.72
1.09 1.25 1.43 1.60 1.65 1.70 1.77 1.79 1.85 1.89 1.80 1.91 1.97 1.96 1.97 1.89 1.80 2.06 2.19 2.18 2.37 2.42 2.41 2.39 2.48 2.72 2.77 2.81 2.59 2.73 2.94 2.95 2.91 2.92 2.87 3.01 3.06 2.97 2.69 2.37 2.19 2.12 1.96
1.39 1.52 1.61 1.69 1.74 1.69 1.69 1.71 1.87 1.95 2.02 2.15 2.19 2.21 2.13 1.87 2.07 2.11 2.13 2.24 2.36 2.37 2.37 2.31 2.23 2.25 2.33 2.45 2.45 2.47 2.61 2.74 2.83 2.85 2.82 2.88 2.93 2.91 2.83 2.62 2.42 2.29 2.14
1.69 1.84 1.85 1.82 1.86 1.84 1.88 1.93 1.95 2.08 2.22 2.26 2.23 2.25 2.21 2.22 2.21 1.96 1.89 1.89 1.99 2.02 2.01 2.02 1.82 1.73 2.06 2.12 2.29 2.26 2.15 2.19 2.28 2.50 2.61 2.59 2.75 2.86 2.97 2.74 2.62 2.46 2.23
1.92 2.01 2.09 2.11 2.17 2.25 2.35 2.37 2.42 2.49 2.55 2.48 2.39 2.41 2.46 2.42 2.42 2.09 1.97 1.84 1.83 1.80 1.78 1.75 1.79 1.79 1.84 2.02 2.11 2.07 1.98 1.93 1.98 1.98 2.07 2.30 2.53 2.81 2.96 2.90 2.90 2.70 2.40
2.11 2.26 2.33 2.39 2.43 2.47 2.51 2.64 2.80 2.96 3.01 2.90 2.84 2.87 2.86 2.92 2.92 2.54 2.37 2.09 1.98 1.87 1.88 1.94 1.97 1.82 1.88 1.93 1.96 1.92 1.86 1.89 1.94 1.97 1.94 2.09 2.30 2.48 2.77 2.82 2.75 2.66 2.38
2.25 2.41 2.60 2.72 2.77 2.76 2.83 3.00 3.19 3.37 3.40 3.39 3.40 3.41 3.34 3.32 3.30 2.87 2.68 2.39 2.30 2.22 2.23 2.10 2.01 1.81 1.75 1.70 1.71 1.75 1.66 1.65 1.83 1.92 1.90 1.94 2.06 2.24 2.51 2.52 2.48 2.56 2.37
2.49 2.62 2.76 2.87 3.00 3.07 3.17 3.27 3.46 3.60 3.58 3.53 3.51 3.49 3.38 3.30 3.17 2.82 2.64 2.42 2.43 2.43 2.31 2.18 2.03 1.88 1.67 1.62 1.57 1.55 1.58 1.68 1.80 1.89 2.00 2.11 2.22 2.33 2.34 2.36 2.40 2.37 2.35
2.74 2.88 2.93 2.94 2.85 2.85 3.11 3.31 3.55 3.77 3.74 3.67 3.71 3.57 3.40 3.27 3.00 2.76 2.55 2.41 2.48 2.52 2.42 2.28 2.15 2.01 1.75 1.67 1.53 1.50 1.58 1.55 1.63 1.76 1.83 1.95 2.07 2.19 2.32 2.44 2.48 2.38 2.25
2.78 2.82 2.92 2.95 2.97 3.02 3.23 3.41 3.62 3.73 3.69 3.59 3.57 3.48 3.28 3.10 2.95 2.69 2.45 2.37 2.42 2.36 2.43 2.52 2.32 2.13 1.90 1.74 1.72 1.72 1.61 1.49 1.63 1.75 1.71 1.76 1.87 2.05 2.36 2.58 2.69 2.68 2.43
2.43 2.46 2.45 2.56 2.72 2.96 3.26 3.36 3.41 3.46 3.50 3.49 3.37 3.23 3.19 3.16 3.10 2.83 2.51 2.27 2.24 2.27 2.31 2.40 2.29 2.13 1.91 1.76 1.79 1.73 1.59 1.56 1.66 1.73 1.75 1.80 1.94 2.06 2.23 2.39 2.61 2.69 2.53
2.11 2.14 2.23 2.34 2.52 2.73 2.96 3.11 3.07 3.10 3.31 3.21 2.98 2.81 2.70 2.63 2.71 2.61 2.33 2.18 2.14 2.23 2.29 2.33 2.27 2.15 2.01 1.87 1.80 1.81 1.82 1.77 1.69 1.67 1.81 1.84 1.87 1.87 1.93 2.10 2.38 2.50 2.37
1.86 1.89 1.93 1.99 2.16 2.33 2.48 2.60 2.62 2.40 2.46 2.37 2.23 2.11 1.99 1.95 1.96 1.83 1.69 1.64 1.73 1.92 2.01 2.16 2.20 2.11 2.02 1.96 1.93 1.91 1.88 1.80 1.72 1.71 1.75 1.79 1.80 1.80 1.83 1.93 2.10 2.27 2.25
1.98 1.94 1.93 1.95 2.06 2.10 2.12 2.17 2.21 2.07 1.93 1.88 1.75 1.61 1.52 1.50 1.50 1.50 1.53 1.55 1.63 1.69 1.70 1.87 1.92 1.91 1.92 1.95 1.95 1.88 1.81 1.77 1.81 1.75 1.69 1.74 1.81 1.84 1.88 1.97 2.01 2.12 2.20
2.28 2.22 2.09 2.03 2.03 1.96 1.95 2.00 2.10 2.12 1.99 1.77 1.57 1.36 1.25 1.26 1.31 1.44 1.63 1.60 1.62 1.62 1.59 1.70 1.71 1.73 1.80 1.88 1.93 1.91 1.84 1.84 1.88 1.84 1.80 1.83 1.94 1.98 1.96 1.97 2.03 2.07 2.14
2.17 2.15 2.03 2.01 2.04 2.13 2.09 2.07 2.14 2.14 2.19 2.07 1.78 1.54 1.42 1.37 1.41 1.55 1.62 1.52 1.56 1.57 1.57 1.67 1.72 1.73 1.77 1.87 1.92 1.95 1.96 1.98 1.97 1.99 1.98 1.96 2.04 2.11 2.02 1.95 2.03 2.18 2.19
1.90 1.96 1.87 1.85 1.86 2.01 2.05 2.02 2.05 2.17 2.18 2.08 1.89 1.61 1.37 1.25 1.24 1.44 1.54 1.64 1.72 1.75 1.77 1.77 1.84 1.87 1.87 1.89 1.92 1.92 1.97 2.01 2.00 2.01 2.04 2.07 2.10 2.12 2.03 2.01 2.03 2.14 2.12
1.65 1.64 1.63 1.64 1.70 1.84 1.95 1.98 1.96 1.95 1.99 1.92 1.77 1.50 1.28 1.15 1.22 1.35 1.49 1.62 1.68 1.72 1.75 1.79 1.85 1.82 1.81 1.86 1.89 1.88 1.96 2.01 2.02 2.02 2.08 2.10 2.06 2.05 2.02 2.03 2.05 2.09 2.16
1.62 1.59 1.47 1.48 1.65 1.74 1.81 1.87 1.81 1.75 1.72 1.71 1.60 1.36 1.23 1.15 1.25 1.39 1.55 1.60 1.63 1.65 1.64 1.66 1.64 1.64 1.65 1.69 1.76 1.80 1.84 1.87 1.88 1.90 1.97 2.02 2.01 1.99 2.01 2.05 2.10 2.16 2.19
1.39 1.50 1.49 1.50 1.60 1.60 1.63 1.77 1.80 1.77 1.76 1.73 1.56 1.41 1.31 1.34 1.41 1.50 1.60 1.61 1.56 1.56 1.58 1.59 1.57 1.54 1.47 1.52 1.59 1.66 1.76 1.81 1.77 1.76 1.80 1.81 1.85 1.87 1.87 1.88 1.91 2.02 2.10
1.07 1.26 1.31 1.30 1.34 1.42 1.52 1.65 1.74 1.71 1.70 1.73 1.65 1.53 1.49 1.54 1.58 1.61 1.63 1.58 1.52 1.54 1.55 1.52 1.46 1.40 1.34 1.40 1.44 1.40 1.39 1.41 1.43 1.50 1.56 1.59 1.66 1.75 1.77 1.79 1.86 1.93 2.04
1.02 1.16 1.15 1.11 1.11 1.21 1.35 1.47 1.52 1.48 1.43 1.41 1.35 1.30 1.32 1.40 1.48 1.50 1.49 1.45 1.41 1.41 1.36 1.32 1.31 1.27 1.20 1.15 1.15 1.12 1.17 1.15 1.10 1.13 1.25 1.39 1.46 1.61 1.75 1.80 1.88 1.98 2.03
0.99 1.07 1.07 1.00 0.96 1.06 1.26 1.38 1.41 1.42 1.42 1.38 1.33 1.30 1.30 1.33 1.31 1.30 1.33 1.33 1.32 1.29 1.26 1.21 1.16 1.10 1.06 0.99 0.96 1.00 1.01 0.97 0.94 1.01 1.03 1.15 1.30 1.44 1.56 1.63 1.68 1.83 1.95